Regional Weather Roundup
Issued by NWS

Home | Current Version | Previous Version | Text Only | Print | Product List | Glossary On
Versions: 1 2 3 4 5 6 7 8 9 10 11 12 13 14 15 16 17 18 19 20 21 22 23 24 25 26 27 28 29 30 31 32 33 34 35 36 37 38 39 40 41 42 43 44 45 46 47 48 49 50
000
ASUS46 KPQR 280310
RWROR

OREGON REGIONAL WEATHER ROUNDUP
NATIONAL WEATHER SERVICE PORTLAND OR
800 PM PDT MON JUL 27 2015

NOTE: "FAIR" INDICATES FEW OR NO CLOUDS BELOW 12,000 FEET WITH
NO SIGNIFICANT WEATHER AND/OR OBSTRUCTIONS TO VISIBILITY.

ORZ001>013-280400-
NORTHWEST OREGON


CITY           SKY/WX    TMP DP  RH WIND       PRES   REMARKS
ASTORIA        CLEAR     65  54  67 NW14      30.26R
NEWPORT        CLEAR     63  55  77 N13G20    30.26S
PORTLAND       PTCLDY    73  52  47 NW8       30.19S
VANCOUVER WA   CLEAR     73  49  42 N9G18     30.19R
SCAPPOOSE      CLEAR     72  50  45 NW12G17   30.20R
HILLSBORO      CLEAR     71  49  45 NW14      30.20R
AURORA         CLEAR     73  48  41 NW7       30.20R
MCMINNVILLE    PTCLDY    74  49  41 N8        30.20R
SALEM          CLEAR     74  47  38 N9        30.18R
CORVALLIS      MOCLDY    72  52  49 NW13      30.20R
EUGENE         PTCLDY    74  44  34 NE10      30.18R
$$

ORZ021-028-280400-
SOUTHWEST OREGON


CITY           SKY/WX    TMP DP  RH WIND       PRES   REMARKS
NORTH BEND     CLEAR     64  57  77 N24G31    30.20R
BROOKINGS      CLEAR     78  56  46 NW9       30.03R
ROSEBURG       CLEAR     77  43  29 N12G21    30.14S
SEXTON SUMMIT  CLEAR     60  38  43 VRB6      30.20R
MEDFORD        CLEAR     80  43  26 NW10      30.09R
$$

ORZ014>016-041-280400-
COLUMBIA GORGE


CITY           SKY/WX    TMP DP  RH WIND       PRES   REMARKS
TROUTDALE      CLEAR     73  49  42 NW8       30.17S
THE DALLES     CLEAR     75  43  31 W16G25    30.11R
$$

ORZ029>031-041-044-049-050-061>064-502-503-505>511-280400-
EASTERN OREGON


CITY           SKY/WX    TMP DP  RH WIND       PRES   REMARKS
REDMOND        CLEAR     66  35  31 N10       30.19R
BEND           CLEAR     66  36  32 N9        30.20R
PRINEVILLE     CLEAR     66  36  32 NW13      30.19R
KLAMATH FALLS  CLEAR     71  35  26 N13       30.16R
LAKEVIEW       CLEAR     64  30  27 N8        30.19R
HERMISTON      CLEAR     76  45  33 W13       30.07R
PENDLETON      CLEAR     72  37  28 NW7       30.10R
JOHN DAY       CLEAR     66  32  27 NW10G16   30.18R
MEACHAM        CLEAR     60  36  40 CALM      30.19R
LA GRANDE      CLEAR     64  34  32 N6        30.15R
BAKER CITY     CLEAR     60  36  40 NW12      30.17R
BURNS          CLEAR     67  27  22 NW9       30.18R
ROME             N/A     71  21  15 NW8       30.15R
ONTARIO        CLEAR     71  35  26 NW13G20   30.11R
$$


USA.gov is the U.S. government's official web portal to all federal, state and local government web resources and services.